Jackpot

Texas Poker Multi Jackpot System

Kini Telah hadir Jackpot SUPER ROYAL FLUSH

Kini Telah hadir Jackpot 2000 (khusus table VIP keatas).

Ikutilah global jackpot yang tersedia di system kami, dengan system jackpot terbaru dan pertama di indonesia, anda dapat membeli jackpot dengan harga 100 rupiah saja dan menangkan hadiahnya hingga puluhan juta rupiah.

Jackpot bukanlah suatu keharusan untuk dibeli, namun kami memberikan suatu fitur tambahan untuk member tercinta dari www.salmonpoker.com.

Terdapat tiga pilihan harga jackpot yang bisa anda beli yaitu :100,500,1000 dan 2000(khusus table VIP Keatas) rupiah.

Hadiah dari Multi jackpot system www.salmonpoker.com

  1. full house x 10 harga jackpot yang anda beli.
      (contoh:anda membeli 1000 maka:1000 X10 = 10.000)
  2. four of kind x 250 harga jackpot yang anda beli
      (contoh:anda membeli 1000 maka:1000 X250 = 250.000)
  3. Straight flush x 1200
      (contoh:anda membeli 1000 maka:1000 X1200 = 1.200.000)
  4. Royal flush x 10000 harga jackpot yang anda beli
      (contoh:anda membeli 1000 maka:1000 X10000 = 10.000.000)
  5. SUPER ROYAL FLUSH x 30000 harga jackpot yang anda beli
      (contoh:anda membeli 1000 maka:1000 X30000 = 30.000.000)

Kondisi kartu

  1. full house adalah kondisi kartu dimana kartu anda dan kartu tengah dengan total 7 kartu bisa mendapatkan nilai 5 kartu dengan kombinasi 1 tris(three of kind) dan 1 pair, contoh 3 kartu 10 dan 2 kartu 5
  2. Four of kind adalah kondisi kartu dimana kartu anda dan kartu tengah dengan total 7 kartu bisa mendapatkan nilai 5 kartu dengan kombinasi 4 kartu yang sama jumlah dan 1 kartu apapun juga contoh anda mendapatkan 4 buah kartu angka 3 dan 1 kartu apapun.
  3. Staright flush adalah kondisi kartu dimana kartu anda dan kartu tengah dengan total 7 kartu bisa mendapatkan nilai 5 kartu dengan kombinasi seri / staright dengan kembang yang sama contoh : urutan kartu dari angka 5, 6, 7, 8 , 9 10 dengan kembang yg sama misalnya as hati
  4. Royal flush adalah kondisi kartu dimana kartu anda dan kartu tengah dengan total 7 kartu bisa mendapatkan nilai 5 kartu dengan kombinasi seri / staright dengan kembang yang sama tetapi kartu tersebut haruslah dimulai dari 10. contoh 10, Queen, Jack, King dan aces dengan kembang yang sama
  5. Super Royal flush adalah kondisi kartu dimana Kedua kartu anda digabung dengan 3 kartu pertama meja haruslah royal flush. contoh kartu anda 10,Queen kembang sama dan 3 kartu pertama meja adalah Jack, King dan aces dengan kembang yang sama

Demikian adalah penjelasan dari Multi Jackpot www.salmonpoker.com terima kasih dan selamat bermain salam hoki dari kami

Texas Poker Jackpot Winner

TOP SUPER ROYAL FLUSH
No.TanggalNamaPriceWin
119/06 17:31BULLD2311Super Royal flush6,000,000
219/06 17:22IM2HMTQ2J5Super Royal flush6,000,000
319/06 16:46JABAR178Super Royal flush6,000,000
419/06 16:34TEAMLO69Super Royal flush6,000,000
519/06 11:19VIN221248Super Royal flush6,000,000
TOP ROYAL FLUSH
No.TanggalNamaPriceWin
119/06 17:30AFWA12TVHVRoyal flush5,000,000
219/06 17:23WALLET02Royal flush5,000,000
319/06 17:13GEEZEERRoyal flush5,000,000
419/06 16:57SH3ILARoyal flush1,000,000
519/06 16:33JALU858Royal flush1,000,000
TOP STRAIGHT FLUSH
No.TanggalNamaPriceWin
119/06 17:29MUTIIStraight Flush240,000
219/06 17:29ZJX3Straight Flush2,400,000
319/06 17:28JOJON101Straight Flush240,000
419/06 17:26AYJOLAAStraight Flush240,000
519/06 17:26RCK03Straight Flush600,000
LATEST JACKPOT
No.TanggalNamaPriceWin
119/06 17:35L7OU8WRLG4Four Of A Kind50,000
219/06 17:35GIB4S8888Full House2,000
319/06 17:35BEELOVE35Full House1,000
419/06 17:35CODEAT77Full House2,000
519/06 17:35MIRA_65Four Of A Kind50,000
619/06 17:34TEMPOER888Full House2,000
719/06 17:34BULUKAWEK8Full House5,000
819/06 17:34FARETHEEWELL12Full House2,000
919/06 17:34LEKHFull House10,000
1019/06 17:34NAWUBESURFull House10,000
1119/06 17:34X6X6X6Full House2,000
1219/06 17:34FA5TTQ8HHCFull House5,000
1319/06 17:34LAPTOP111Full House5,000
1419/06 17:34FADILAKBARFull House2,000
1519/06 17:34PANDA_16Full House5,000
1619/06 17:34LR14OQ3TTNFull House2,000
1719/06 17:34BODASSSFull House2,000
1819/06 17:34BUNGAR01Full House5,000
1919/06 17:34ARIEHUSSEIFull House2,000
2019/06 17:34B4RK4H30Full House1,000
2119/06 17:34SURTYAYUFull House2,000
2219/06 17:34QQANWARMUHFull House5,000
2319/06 17:34ELPATRON21Full House5,000
2419/06 17:34U02RF0HL7EFull House2,000
2519/06 17:34B2KT5Full House2,000
2619/06 17:34JAWATOGE86Full House10,000
2719/06 17:34BAIEIHOQEFour Of A Kind125,000
2819/06 17:34JENABUT212Full House1,000
2919/06 17:34PD4DKASIH12Full House2,000
3019/06 17:34PLAS11Full House2,000
3119/06 17:34RIVALD111Full House20,000
3219/06 17:34MEYOU87Four Of A Kind125,000
3319/06 17:34WAHID312Full House20,000
3419/06 17:34DB1C97F7Full House2,000
3519/06 17:34TAJOER888Full House5,000
3619/06 17:34ZHAFRAN23Full House2,000
3719/06 17:34YUSUFGALUHFull House5,000
3819/06 17:34JOY1111Full House5,000
3919/06 17:34DRAYMONDFull House5,000
4019/06 17:34SIKOKOHFull House10,000
4119/06 17:34MONAS537Full House1,000
4219/06 17:34GEUNYAL77Full House2,000
4319/06 17:34ECEMFull House10,000
4419/06 17:34SARAGIHMENFull House20,000
4519/06 17:34F4C19EC9Full House2,000
4619/06 17:34DEPAY66Full House20,000
4719/06 17:34BEWOOOK86Full House5,000
4819/06 17:34P0SITIF_Full House1,000
4919/06 17:34RALISSAH23Full House20,000
5019/06 17:34KITUBAE23Full House5,000

Domino Multi Jackpot System

Ikutilah global jackpot yang tersedia di system kami, dengan system jackpot terbaru dan pertama di indonesia, anda dapat membeli jackpot dengan harga 100 rupiah saja dan menangkan hadiahnya hingga puluhan juta rupiah.

Jackpot bukanlah suatu keharusan untuk dibeli, namun kami memberikan suatu fitur tambahan untuk member tercinta dari www.salmonpoker.com.

Terdapat tiga pilihan harga jackpot yang bisa anda beli yaitu :100,500 dan 1000 rupiah.

Hadiah dari Multi jackpot system www.salmonpoker.com

  1. Murni Kecil x 50 harga jackpot yang anda beli.
      (contoh:anda membeli 1000 maka:1000 X 50 = 50.000)
  2. Murni Besar x 50 harga jackpot yang anda beli
      (contoh:anda membeli 1000 maka:1000 X 50 = 50.000)
  3. BALAK x 100 harga jackpot yang anda beli
      (contoh:anda membeli 1000 maka:1000 X 100 = 100.000)
  4. ENAM DEWA x 6666 harga jackpot yang anda beli
      (contoh:anda membeli 1000 maka:1000 X 6666 = 6.666.000)

Demikian adalah penjelasan dari Multi Jackpot www.salmonpoker.com terima kasih dan selamat bermain salam hoki dari kami

Domino Jackpot Winner

TOP ENAM DEWA
No.TanggalNamaPriceWin
119/06 15:29JEEG99murni enam666,600
219/06 14:55ALBERT80murni enam666,600
319/06 12:56RIZKII01murni enam6,666,000
419/06 12:45BERTO889murni enam6,666,000
519/06 12:34P4C1L0N9murni enam3,333,000
TOP BALAK
No.TanggalNamaPriceWin
119/06 17:34ALWI04balak50,000
219/06 17:28SALO344balak100,000
319/06 17:26ADDIEN01balak100,000
419/06 17:25OLUL563CFEbalak10,000
519/06 17:23OMRE89balak10,000
LATEST JACKPOT
No.TanggalNamaPriceWin
119/06 17:34ALWI04balak50,000
219/06 17:34WIJIEmurni kecil50,000
319/06 17:34IBROHIM12murni kecil25,000
419/06 17:34DENADA12murni kecil25,000
519/06 17:33HERNITA89murni kecil50,000
619/06 17:31T4DOWIEX88murni besar50,000
719/06 17:30LER33murni kecil5,000
819/06 17:29IBROHIM12murni besar5,000
919/06 17:28CIKEULEmurni kecil25,000
1019/06 17:28SALO344balak100,000
1119/06 17:27UPUTDULUmurni kecil50,000
1219/06 17:27DUDUNGPRETmurni kecil50,000
1319/06 17:27SABA99murni besar50,000
1419/06 17:27FEBRIANSYAmurni besar25,000
1519/06 17:27SYYSJPNJ95murni besar5,000
1619/06 17:26JONATHAN88lucky992,500
1719/06 17:26SHIPSEKIlucky9910,000
1819/06 17:26LINKLUNK90murni kecil5,000
1919/06 17:26ADDIEN01balak100,000
2019/06 17:25EFICK11murni kecil50,000
2119/06 17:25OLUL563CFEbalak10,000
2219/06 17:24ANDRE1PIROlucky992,500
2319/06 17:24DWBT697murni kecil50,000
2419/06 17:24BESET133murni besar50,000
2519/06 17:23OMRE89balak10,000
2619/06 17:23MAZLA99murni kecil50,000
2719/06 17:23AFDHAL2murni kecil50,000
2819/06 17:23IMOIYYmurni besar50,000
2919/06 17:23DESTROY84murni kecil50,000
3019/06 17:23AAAALDG194murni kecil50,000
3119/06 17:23B4B1NSAmurni kecil25,000
3219/06 17:23JOBONmurni kecil25,000
3319/06 17:22OCA7777murni besar50,000
3419/06 17:21AZHAAR620murni kecil50,000
3519/06 17:21GBLUESmurni kecil50,000
3619/06 17:21AMBROZIIbalak100,000
3719/06 17:21RPS_105balak10,000
3819/06 17:20DODIADIPRmurni kecil50,000
3919/06 17:19ZUImurni besar50,000
4019/06 17:19RUFI123murni besar25,000
4119/06 17:19D9U5IQ2OOMbalak50,000
4219/06 17:19P4RTI99murni besar50,000
4319/06 17:19ABRIYAN1lucky9925,000
4419/06 17:18KASMARI1murni besar50,000
4519/06 17:18FF147D85murni besar25,000
4619/06 17:18HK4DCELENG1000murni kecil50,000
4719/06 17:17JELIDRING9murni kecil50,000
4819/06 17:17DIANTI80murni besar5,000
4919/06 17:17CAHPmurni besar25,000
5019/06 17:17HUI23murni kecil25,000

Ceme Multi Jackpot System

Jackpot dilihat dari gabungan kartu pemain dengan kartu bandar. Bandar harus membeli jackpot sebanyak jumlah player yang sedang duduk. Sebagai contoh bila terdapat 3 pemain duduk bermain, dan bandar memutuskan untuk membeli jackpot Rp 1.000, maka pada periode tersebut bandar akan membeli jackpot sebanyak 3xRp1.000 = Rp3.000.

Jackpot bukanlah suatu keharusan untuk dibeli, namun kami memberikan suatu fitur tambahan untuk member tercinta dari www.salmonpoker.com.

Terdapat tiga pilihan harga jackpot yang bisa anda beli yaitu :100,500 dan 1000 rupiah.

Hadiah dari Multi jackpot system www.salmonpoker.com

  1. Murni Kecil x 50 harga jackpot yang anda beli.
      (contoh:anda membeli 1000 maka:1000 X 50 = 50.000)
  2. Murni Besar x 50 harga jackpot yang anda beli
      (contoh:anda membeli 1000 maka:1000 X 50 = 50.000)
  3. BALAK x 200 harga jackpot yang anda beli
      (contoh:anda membeli 1000 maka:1000 X 200 = 200.000)
  4. ENAM DEWA x 6666 harga jackpot yang anda beli
      (contoh:anda membeli 1000 maka:1000 X 6666 = 6.666.000)

Demikian adalah penjelasan dari Multi Jackpot www.salmonpoker.com terima kasih dan selamat bermain salam hoki dari kami

Ceme Jackpot Winner

TOP ENAM DEWA
No.TanggalNamaPriceWin
119/06 17:33RIDOET12murni enam6,666,000
219/06 17:01DJAROT766murni enam6,666,000
319/06 17:01KARYO33murni enam6,666,000
419/06 16:49B18N0023murni enam6,666,000
519/06 16:49ALMEIRAHmurni enam6,666,000
TOP BALAK
No.TanggalNamaPriceWin
119/06 17:35NUR_HAYA55balak200,000
219/06 17:34TEK14OQ4C3balak100,000
319/06 17:34SIDS95balak200,000
419/06 17:34KEJEDOT66balak200,000
519/06 17:33FATCH0Ibalak100,000
LATEST JACKPOT
No.TanggalNamaPriceWin
119/06 17:35NUR_HAYA55balak200,000
219/06 17:34NI2O0239YAmurni kecil50,000
319/06 17:34TIHKOmurni kecil50,000
419/06 17:34AZKI4murni besar50,000
519/06 17:34BASAR76murni besar50,000
619/06 17:34D425B4E8murni besar50,000
719/06 17:34IRON2218murni kecil25,000
819/06 17:34TEK14OQ4C3balak100,000
919/06 17:34BAUT8murni kecil50,000
1019/06 17:34ARIA993murni kecil50,000
1119/06 17:34SIDS95balak200,000
1219/06 17:34KEJEDOT66balak200,000
1319/06 17:33MESINJUMBOmurni besar25,000
1419/06 17:33TOPO92murni kecil5,000
1519/06 17:33FATCH0Ibalak100,000
1619/06 17:33AN3YASPKbalak100,000
1719/06 17:33VINORAJENDbalak20,000
1819/06 17:33SS86SSmurni kecil50,000
1919/06 17:33XXX7778murni kecil50,000
2019/06 17:33SS86SSmurni kecil50,000
2119/06 17:33RIDOET12murni enam6,666,000
2219/06 17:33DEMBA88murni kecil25,000
2319/06 17:33AQUA357murni besar50,000
2419/06 17:33RIFKI2016balak200,000
2519/06 17:32R4J4141balak200,000
2619/06 17:32AAAALACH70murni kecil25,000
2719/06 17:32ATHA171216murni kecil25,000
2819/06 17:32KISIL_16murni kecil50,000
2919/06 17:32WAHYYU95murni kecil50,000
3019/06 17:32REYNALDY25murni kecil25,000
3119/06 17:32ENGKY20murni kecil5,000
3219/06 17:32LAGHULmurni kecil5,000
3319/06 17:32ADICT46murni besar50,000
3419/06 17:32BLARUKKbalak100,000
3519/06 17:32NACHENmurni kecil50,000
3619/06 17:32S8UGENGmurni kecil25,000
3719/06 17:31MAMIJIHAN9murni besar50,000
3819/06 17:31G190LOXXmurni besar50,000
3919/06 17:31BHEKEN10murni kecil5,000
4019/06 17:31TAMAN01balak200,000
4119/06 17:31EMBENG05balak200,000
4219/06 17:31GACOR557murni besar25,000
4319/06 17:31HOKI120773balak200,000
4419/06 17:31SUJUD89murni kecil25,000
4519/06 17:31TINGGI_22balak20,000
4619/06 17:31ODONK39balak20,000
4719/06 17:31RUDI0813murni kecil25,000
4819/06 17:30POESAT86balak100,000
4919/06 17:30NI2O0239YAmurni besar50,000
5019/06 17:30CANDR4_Rmurni besar50,000